When you browse on this site, cookies collect data to enhance your experience and personalize the content and advertising you see.
Visit our Privacy Policy to learn more. By continuing to use the site, you agree to this use of cookies and data.
  • In Spain
  • List of Countries
  • For 7 days
  • Water Temperature
  • Satellite Maps
  • Weather Map
  • Weather Widgets
  • user-avatar
    Login

    Hourly Weather Abha

    Today, 17 December, Monday

    Time Temperature Precipitation Wind Pressure Humidity
    00:00 +21°C° 0 mm 1 mps 647 mmHg 65%
    01:00 +20°C° 0 mm 1 mps 647 mmHg 64%
    02:00 +20°C° 0 mm 1 mps 647 mmHg 64%
    03:00 +20°C° 0 mm 1 mps 646 mmHg 63%
    04:00 +19°C° 0 mm 1 mps 646 mmHg 62%
    05:00 +19°C° 0 mm 1 mps 646 mmHg 61%
    06:00 +19°C° 0 mm 1 mps 646 mmHg 59%
    07:00 +20°C° 0 mm 1 mps 646 mmHg 54%
    08:00 +21°C° 0 mm 1 mps 647 mmHg 49%
    09:00 +22°C° 0 mm 1 mps 647 mmHg 44%
    10:00 +23°C° 0 mm 2 mps 647 mmHg 41%
    11:00 +24°C° 0 mm 2 mps 647 mmHg 38%
    12:00 +25°C° 0 mm 2 mps 647 mmHg 35%
    13:00 +25°C° 0 mm 3 mps 647 mmHg 37%
    14:00 +25°C° 0 mm 3 mps 647 mmHg 39%
    15:00 +25°C° 0 mm 4 mps 646 mmHg 41%
    16:00 +24°C° 0.1 mm 3 mps 646 mmHg 48%
    17:00 +22°C° 0.1 mm 3 mps 646 mmHg 55%
    18:00 +21°C° 0.1 mm 3 mps 646 mmHg 62%
    19:00 +21°C° 0.2 mm 2 mps 646 mmHg 65%
    20:00 +20°C° 0.2 mm 2 mps 646 mmHg 67%
    21:00 +21°C° 0.2 mm 1 mps 647 mmHg 70%
    22:00 +21°C° 0 mm 1 mps 646 mmHg 71%
    23:00 +21°C° 0 mm 1 mps 646 mmHg 71%

    Tomorrow, 18 December, Tuesday

    Time Temperature Precipitation Wind Pressure Humidity
    00:00 +20°C° 0 mm 1 mps 646 mmHg 71%
    01:00 +18°C° 0.1 mm 0 mps 646 mmHg 72%
    02:00 +18°C° 0.1 mm 0 mps 646 mmHg 72%
    03:00 +18°C° 0.1 mm 0 mps 646 mmHg 73%
    04:00 +17°C° 0 mm 0 mps 646 mmHg 74%
    05:00 +17°C° 0 mm 0 mps 646 mmHg 76%
    06:00 +17°C° 0 mm 0 mps 645 mmHg 78%
    07:00 +17°C° 0 mm 0 mps 646 mmHg 72%
    08:00 +18°C° 0 mm 0 mps 647 mmHg 67%
    09:00 +21°C° 0 mm 1 mps 647 mmHg 61%
    10:00 +22°C° 0 mm 1 mps 647 mmHg 56%
    11:00 +23°C° 0 mm 2 mps 647 mmHg 51%
    12:00 +24°C° 0 mm 2 mps 647 mmHg 46%
    13:00 +24°C° 0.1 mm 2 mps 647 mmHg 48%
    14:00 +24°C° 0.1 mm 3 mps 646 mmHg 49%
    15:00 +24°C° 0.1 mm 3 mps 646 mmHg 51%
    16:00 +22°C° 0.1 mm 3 mps 646 mmHg 54%
    17:00 +22°C° 0.1 mm 3 mps 646 mmHg 57%
    18:00 +21°C° 0.1 mm 2 mps 646 mmHg 60%
    19:00 +21°C° 0 mm 2 mps 646 mmHg 60%
    20:00 +20°C° 0 mm 2 mps 646 mmHg 61%
    21:00 +20°C° 0 mm 2 mps 647 mmHg 61%
    22:00 +20°C° 0.1 mm 2 mps 646 mmHg 62%
    23:00 +20°C° 0.1 mm 1 mps 646 mmHg 63%

    Day after tomorrow, 19 December, Wednesday

    Time Temperature Precipitation Wind Pressure Humidity
    00:00 +20°C° 0.1 mm 1 mps 646 mmHg 63%
    01:00 +20°C° 0.3 mm 1 mps 646 mmHg 63%
    02:00 +19°C° 0.3 mm 1 mps 645 mmHg 62%
    03:00 +19°C° 0.3 mm 1 mps 645 mmHg 62%
    04:00 +19°C° 0.1 mm 1 mps 645 mmHg 62%
    05:00 +19°C° 0.1 mm 1 mps 645 mmHg 62%
    06:00 +16°C° 0.1 mm 0 mps 645 mmHg 62%
    07:00 +19°C° 0.1 mm 1 mps 646 mmHg 58%
    08:00 +20°C° 0.1 mm 1 mps 647 mmHg 53%
    09:00 +21°C° 0.1 mm 1 mps 647 mmHg 48%
    10:00 +21°C° 0 mm 2 mps 647 mmHg 46%
    11:00 +23°C° 0 mm 2 mps 647 mmHg 44%
    12:00 +24°C° 0 mm 2 mps 647 mmHg 42%
    13:00 +24°C° 0 mm 2 mps 647 mmHg 44%
    14:00 +24°C° 0 mm 3 mps 646 mmHg 46%
    15:00 +24°C° 0 mm 3 mps 646 mmHg 48%
    16:00 +22°C° 0 mm 3 mps 646 mmHg 52%
    17:00 +23°C° 0 mm 2 mps 646 mmHg 57%
    18:00 +21°C° 0 mm 2 mps 646 mmHg 62%
    19:00 +21°C° 0 mm 2 mps 646 mmHg 64%
    20:00 +20°C° 0 mm 2 mps 646 mmHg 65%
    21:00 +21°C° 0 mm 1 mps 647 mmHg 67%
    22:00 +21°C° 0 mm 1 mps 646 mmHg 69%
    23:00 +20°C° 0 mm 1 mps 646 mmHg 70%

    20 December, Thursday

    Time Temperature Precipitation Wind Pressure Humidity
    00:00 +20°C° 0 mm 1 mps 646 mmHg 72%
    01:00 +20°C° 0 mm 1 mps 646 mmHg 72%
    02:00 +20°C° 0 mm 1 mps 645 mmHg 73%
    03:00 +19°C° 0 mm 1 mps 645 mmHg 73%
    04:00 +19°C° 0 mm 1 mps 645 mmHg 74%
    05:00 +17°C° 0 mm 0 mps 645 mmHg 75%
    06:00 +17°C° 0 mm 0 mps 645 mmHg 76%
    07:00 +18°C° 0 mm 0 mps 646 mmHg 69%
    08:00 +20°C° 0 mm 1 mps 647 mmHg 63%
    09:00 +21°C° 0 mm 1 mps 647 mmHg 57%
    10:00 +22°C° 0 mm 1 mps 647 mmHg 51%
    11:00 +23°C° 0 mm 2 mps 647 mmHg 46%
    12:00 +24°C° 0 mm 2 mps 647 mmHg 41%
    13:00 +25°C° 0 mm 3 mps 646 mmHg 42%
    14:00 +25°C° 0 mm 3 mps 646 mmHg 43%
    15:00 +25°C° 0 mm 3 mps 645 mmHg 43%
    16:00 +24°C° 0 mm 3 mps 645 mmHg 49%
    17:00 +22°C° 0 mm 3 mps 645 mmHg 54%
    18:00 +21°C° 0 mm 3 mps 645 mmHg 59%
    19:00 +21°C° 0 mm 2 mps 646 mmHg 62%
    20:00 +21°C° 0 mm 2 mps 646 mmHg 64%
    21:00 +20°C° 0 mm 2 mps 646 mmHg 67%
    22:00 +21°C° 0 mm 1 mps 646 mmHg 67%
    23:00 +21°C° 0 mm 1 mps 646 mmHg 67%

    21 December, Friday

    Time Temperature Precipitation Wind Pressure Humidity
    00:00 +20°C° 0 mm 1 mps 646 mmHg 67%
    01:00 +20°C° 0 mm 1 mps 645 mmHg 67%
    02:00 +20°C° 0 mm 1 mps 645 mmHg 66%
    03:00 +19°C° 0 mm 1 mps 645 mmHg 66%
    04:00 +19°C° 0 mm 1 mps 645 mmHg 66%
    05:00 +19°C° 0 mm 1 mps 645 mmHg 65%
    06:00 +19°C° 0 mm 1 mps 645 mmHg 65%
    07:00 +20°C° 0 mm 1 mps 646 mmHg 60%
    08:00 +21°C° 0 mm 1 mps 646 mmHg 55%
    09:00 +21°C° 0 mm 1 mps 647 mmHg 50%
    10:00 +22°C° 0 mm 1 mps 647 mmHg 47%
    11:00 +23°C° 0 mm 2 mps 647 mmHg 44%
    12:00 +24°C° 0 mm 2 mps 647 mmHg 42%
    13:00 +25°C° 0 mm 2 mps 646 mmHg 43%
    14:00 +25°C° 0 mm 3 mps 646 mmHg 44%
    15:00 +25°C° 0 mm 3 mps 645 mmHg 45%
    16:00 +24°C° 0.1 mm 3 mps 645 mmHg 50%
    17:00 +22°C° 0.1 mm 3 mps 645 mmHg 54%
    18:00 +22°C° 0.1 mm 3 mps 645 mmHg 58%
    19:00 +21°C° 0 mm 3 mps 646 mmHg 58%
    20:00 +21°C° 0 mm 2 mps 646 mmHg 59%
    21:00 +20°C° 0 mm 2 mps 646 mmHg 59%
    22:00 +20°C° 0 mm 2 mps 646 mmHg 60%
    23:00 +21°C° 0 mm 1 mps 645 mmHg 61%

    22 December, Saturday

    Time Temperature Precipitation Wind Pressure Humidity
    00:00 +20°C° 0 mm 1 mps 645 mmHg 63%
    01:00 +20°C° 0 mm 1 mps 645 mmHg 64%
    02:00 +20°C° 0 mm 1 mps 644 mmHg 65%
    03:00 +19°C° 0 mm 1 mps 644 mmHg 66%
    04:00 +19°C° 0.1 mm 1 mps 644 mmHg 65%
    05:00 +19°C° 0.1 mm 1 mps 644 mmHg 64%
    06:00 +17°C° 0.1 mm 0 mps 645 mmHg 63%
    07:00 +20°C° 0.1 mm 1 mps 645 mmHg 57%
    08:00 +21°C° 0.1 mm 1 mps 646 mmHg 52%
    09:00 +22°C° 0.1 mm 1 mps 647 mmHg 46%
    10:00 +21°C° 0.1 mm 2 mps 647 mmHg 44%
    11:00 +23°C° 0.1 mm 2 mps 646 mmHg 42%
    12:00 +24°C° 0.1 mm 2 mps 646 mmHg 40%
    13:00 +24°C° 0 mm 2 mps 646 mmHg 42%
    14:00 +24°C° 0 mm 2 mps 645 mmHg 44%
    15:00 +24°C° 0 mm 3 mps 645 mmHg 47%
    16:00 +24°C° 0 mm 2 mps 645 mmHg 51%
    17:00 +23°C° 0 mm 2 mps 645 mmHg 55%
    18:00 +21°C° 0 mm 2 mps 645 mmHg 58%
    19:00 +21°C° 0 mm 2 mps 645 mmHg 61%
    20:00 +20°C° 0 mm 2 mps 646 mmHg 63%
    21:00 +21°C° 0 mm 1 mps 646 mmHg 65%
    22:00 +21°C° 0 mm 1 mps 646 mmHg 67%
    23:00 +20°C° 0 mm 1 mps 645 mmHg 68%
    Show more